TimeEDT,TemperatureF,Dew PointF,Humidity,Sea Level PressureIn,VisibilityMPH,Wind Direction,Wind SpeedMPH,Gust SpeedMPH,PrecipitationIn,Events,Conditions,WindDirDegrees,DateUTC
12:15 AM,46.4,30.2,53,30.05,10.0,NW,10.4,-,N/A,,Unknown,310,2013-03-26 04:15:00
12:35 AM,46.4,28.4,50,30.06,10.0,NW,12.7,18.4,N/A,,Unknown,320,2013-03-26 04:35:00
12:55 AM,46.4,26.6,46,30.07,10.0,NW,12.7,-,N/A,,Unknown,320,2013-03-26 04:55:00
1:15 AM,44.6,26.6,49,30.07,10.0,NNW,11.5,19.6,N/A,,Unknown,330,2013-03-26 05:15:00
1:35 AM,44.6,28.4,53,30.08,10.0,NNW,9.2,-,N/A,,Unknown,340,2013-03-26 05:35:00
1:55 AM,44.6,26.6,49,30.09,10.0,NNW,12.7,-,N/A,,Unknown,330,2013-03-26 05:55:00
2:15 AM,42.8,26.6,53,30.09,10.0,NNW,11.5,-,N/A,,Unknown,330,2013-03-26 06:15:00
2:35 AM,42.8,24.8,49,30.09,10.0,NNW,12.7,16.1,N/A,,Unknown,330,2013-03-26 06:35:00
2:55 AM,42.8,24.8,49,30.09,10.0,NNW,11.5,-,N/A,,Unknown,330,2013-03-26 06:55:00
3:15 AM,41.0,24.8,53,30.10,10.0,NW,8.1,-,N/A,,Unknown,320,2013-03-26 07:15:00
3:35 AM,41.0,24.8,53,30.09,10.0,NW,12.7,-,N/A,,Unknown,320,2013-03-26 07:35:00
3:55 AM,41.0,24.8,53,30.09,10.0,NW,11.5,-,N/A,,Unknown,310,2013-03-26 07:55:00
4:15 AM,39.2,24.8,56,30.09,10.0,NW,12.7,18.4,N/A,,Unknown,320,2013-03-26 08:15:00
4:35 AM,39.2,24.8,56,30.09,10.0,NW,9.2,16.1,N/A,,Unknown,310,2013-03-26 08:35:00
4:55 AM,39.2,24.8,56,30.09,10.0,NW,11.5,17.3,N/A,,Unknown,310,2013-03-26 08:55:00
5:15 AM,39.2,24.8,56,30.09,10.0,NW,9.2,-,N/A,,Unknown,320,2013-03-26 09:15:00
5:35 AM,37.4,24.8,60,30.10,10.0,NW,9.2,-,N/A,,Unknown,310,2013-03-26 09:35:00
5:55 AM,37.4,24.8,60,30.10,10.0,WNW,9.2,-,N/A,,Unknown,300,2013-03-26 09:55:00
6:15 AM,37.4,24.8,60,30.11,10.0,WNW,6.9,-,N/A,,Unknown,290,2013-03-26 10:15:00
6:35 AM,37.4,26.6,65,30.11,10.0,WNW,5.8,-,N/A,,Unknown,300,2013-03-26 10:35:00
6:55 AM,35.6,26.6,70,30.11,10.0,WNW,5.8,-,N/A,,Unknown,290,2013-03-26 10:55:00
7:15 AM,35.6,26.6,70,30.12,10.0,WNW,6.9,-,N/A,,Unknown,290,2013-03-26 11:15:00
7:35 AM,35.6,26.6,70,30.12,10.0,WNW,9.2,-,N/A,,Unknown,290,2013-03-26 11:35:00
7:55 AM,37.4,26.6,65,30.13,10.0,WNW,9.2,-,N/A,,Unknown,290,2013-03-26 11:55:00
8:15 AM,37.4,26.6,65,30.13,10.0,WNW,10.4,-,N/A,,Unknown,290,2013-03-26 12:15:00
8:35 AM,39.2,26.6,61,30.14,10.0,WNW,9.2,-,N/A,,Unknown,300,2013-03-26 12:35:00
8:55 AM,39.2,26.6,61,30.15,10.0,WNW,11.5,16.1,N/A,,Unknown,300,2013-03-26 12:55:00
9:15 AM,41.0,26.6,57,30.15,10.0,NW,16.1,21.9,N/A,,Unknown,320,2013-03-26 13:15:00
9:35 AM,41.0,26.6,57,30.15,10.0,NW,12.7,21.9,N/A,,Unknown,320,2013-03-26 13:35:00
9:55 AM,42.8,26.6,53,30.15,10.0,NW,17.3,25.3,N/A,,Unknown,320,2013-03-26 13:55:00
10:15 AM,44.6,26.6,49,30.15,10.0,WNW,15.0,23.0,N/A,,Unknown,290,2013-03-26 14:15:00
10:35 AM,44.6,26.6,49,30.15,10.0,NNW,17.3,21.9,N/A,,Unknown,330,2013-03-26 14:35:00
10:55 AM,46.4,26.6,46,30.15,10.0,WNW,16.1,21.9,N/A,,Unknown,290,2013-03-26 14:55:00
11:15 AM,46.4,24.8,43,30.15,10.0,WNW,18.4,26.5,N/A,,Unknown,300,2013-03-26 15:15:00
11:35 AM,46.4,26.6,46,30.15,10.0,WNW,18.4,25.3,N/A,,Unknown,300,2013-03-26 15:35:00
11:55 AM,46.4,26.6,46,30.15,10.0,NW,20.7,27.6,N/A,,Clear,320,2013-03-26 15:55:00
12:15 PM,48.2,26.6,43,30.15,10.0,WNW,10.4,23.0,N/A,,Clear,290,2013-03-26 16:15:00
12:35 PM,48.2,28.4,46,30.15,10.0,NW,17.3,26.5,N/A,,Scattered Clouds,310,2013-03-26 16:35:00
12:55 PM,50.0,26.6,40,30.15,10.0,WNW,18.4,26.5,N/A,,Scattered Clouds,300,2013-03-26 16:55:00
1:15 PM,50.0,26.6,40,30.14,10.0,WNW,20.7,27.6,N/A,,Scattered Clouds,300,2013-03-26 17:15:00
1:35 PM,50.0,26.6,40,30.14,10.0,NW,18.4,28.8,N/A,,Scattered Clouds,310,2013-03-26 17:35:00
1:55 PM,50.0,26.6,40,30.14,10.0,NW,17.3,25.3,N/A,,Scattered Clouds,320,2013-03-26 17:55:00
2:15 PM,50.0,28.4,43,30.13,10.0,West,11.5,25.3,N/A,,Scattered Clouds,280,2013-03-26 18:15:00
2:35 PM,51.8,26.6,38,30.13,10.0,NW,20.7,29.9,N/A,,Scattered Clouds,320,2013-03-26 18:35:00
2:55 PM,50.0,28.4,43,30.12,10.0,WNW,16.1,27.6,N/A,,Scattered Clouds,290,2013-03-26 18:55:00
3:15 PM,53.6,28.4,38,30.12,10.0,NW,16.1,23.0,N/A,,Scattered Clouds,320,2013-03-26 19:15:00
3:35 PM,50.0,26.6,40,30.12,10.0,NW,19.6,25.3,N/A,,Scattered Clouds,320,2013-03-26 19:35:00
3:55 PM,53.6,28.4,38,30.12,10.0,NNW,17.3,27.6,N/A,,Scattered Clouds,330,2013-03-26 19:55:00
4:15 PM,53.6,28.4,38,30.12,10.0,NNW,13.8,21.9,N/A,,Mostly Cloudy,340,2013-03-26 20:15:00
4:35 PM,51.8,28.4,41,30.13,10.0,NW,19.6,25.3,N/A,,Mostly Cloudy,320,2013-03-26 20:35:00
4:55 PM,53.6,28.4,38,30.13,10.0,NW,13.8,24.2,N/A,,Scattered Clouds,310,2013-03-26 20:55:00
5:15 PM,53.6,28.4,38,30.13,10.0,WNW,18.4,24.2,N/A,,Scattered Clouds,290,2013-03-26 21:15:00
5:35 PM,53.6,28.4,38,30.14,10.0,WNW,12.7,23.0,N/A,,Scattered Clouds,300,2013-03-26 21:35:00
5:55 PM,51.8,28.4,41,30.15,10.0,NNW,16.1,25.3,N/A,,Scattered Clouds,330,2013-03-26 21:55:00
6:15 PM,51.8,28.4,41,30.15,10.0,NW,16.1,21.9,N/A,,Clear,320,2013-03-26 22:15:00
6:35 PM,51.8,28.4,41,30.15,10.0,NNW,12.7,23.0,N/A,,Clear,330,2013-03-26 22:35:00
6:55 PM,50.0,28.4,43,30.16,10.0,NNW,17.3,20.7,N/A,,Clear,330,2013-03-26 22:55:00
7:15 PM,48.2,28.4,46,30.16,10.0,NW,11.5,-,N/A,,Clear,320,2013-03-26 23:15:00
7:35 PM,48.2,28.4,46,30.17,10.0,NNW,10.4,-,N/A,,Unknown,330,2013-03-26 23:35:00
7:55 PM,46.4,28.4,50,30.18,10.0,NNW,10.4,-,N/A,,Unknown,330,2013-03-26 23:55:00
8:15 PM,46.4,28.4,50,30.19,10.0,NNW,6.9,-,N/A,,Unknown,330,2013-03-27 00:15:00
8:35 PM,44.6,28.4,53,30.20,10.0,NNW,6.9,-,N/A,,Unknown,330,2013-03-27 00:35:00
8:55 PM,44.6,28.4,53,30.21,10.0,NW,3.5,-,N/A,,Unknown,320,2013-03-27 00:55:00
9:15 PM,44.6,30.2,57,30.21,10.0,NNW,3.5,-,N/A,,Unknown,330,2013-03-27 01:15:00
9:35 PM,42.8,30.2,61,30.23,10.0,Calm,Calm,-,N/A,,Unknown,0,2013-03-27 01:35:00
9:55 PM,42.8,30.2,61,30.23,10.0,NNW,4.6,-,N/A,,Unknown,330,2013-03-27 01:55:00
10:15 PM,41.0,32.0,70,30.24,10.0,NNW,3.5,-,N/A,,Unknown,340,2013-03-27 02:15:00
10:35 PM,39.2,30.2,70,30.25,10.0,Calm,Calm,-,N/A,,Unknown,0,2013-03-27 02:35:00
10:55 PM,39.2,30.2,70,30.26,10.0,NNW,3.5,-,N/A,,Unknown,340,2013-03-27 02:55:00
11:15 PM,39.2,30.2,70,30.27,10.0,NW,3.5,-,N/A,,Unknown,320,2013-03-27 03:15:00
11:35 PM,39.2,30.2,70,30.27,10.0,NW,4.6,-,N/A,,Unknown,320,2013-03-27 03:35:00
11:55 PM,39.2,30.2,70,30.27,10.0,NNW,5.8,-,N/A,,Unknown,330,2013-03-27 03:55:00